TimeCST,TemperatureF,Dew PointF,Humidity,Sea Level PressureIn,VisibilityMPH,Wind Direction,Wind SpeedMPH,Gust SpeedMPH,PrecipitationIn,Events,Conditions,WindDirDegrees,DateUTC
12:10 AM,39.2,32.0,75,30.10,10.0,SSE,4.6,-,N/A,,Overcast,160,2012-11-15 06:10:00
12:31 AM,39.2,32.0,75,30.09,10.0,South,5.8,-,N/A,,Overcast,170,2012-11-15 06:31:00
12:51 AM,39.2,32.0,75,30.09,10.0,SSE,5.8,-,N/A,,Overcast,160,2012-11-15 06:51:00
1:11 AM,39.2,32.0,75,30.09,10.0,SSE,4.6,-,N/A,,Overcast,150,2012-11-15 07:11:00
1:30 AM,39.2,32.0,75,30.08,10.0,SSE,3.5,-,N/A,,Overcast,160,2012-11-15 07:30:00
1:51 AM,39.2,32.0,75,30.08,10.0,SSE,4.6,-,N/A,,Mostly Cloudy,160,2012-11-15 07:51:00
2:11 AM,39.2,32.0,75,30.09,10.0,SSE,4.6,-,N/A,,Overcast,160,2012-11-15 08:11:00
2:31 AM,39.2,32.0,75,30.09,10.0,SSE,5.8,-,N/A,,Mostly Cloudy,150,2012-11-15 08:31:00
2:51 AM,35.6,32.0,87,30.09,10.0,SSE,5.8,-,N/A,,Scattered Clouds,150,2012-11-15 08:51:00
3:11 AM,35.6,32.0,87,30.08,10.0,SSE,6.9,-,N/A,,Clear,160,2012-11-15 09:11:00
3:31 AM,35.6,32.0,87,30.08,10.0,South,4.6,-,N/A,,Clear,170,2012-11-15 09:31:00
3:51 AM,35.6,32.0,87,30.08,10.0,South,5.8,-,N/A,,Clear,190,2012-11-15 09:51:00
4:11 AM,33.8,30.2,87,30.09,10.0,SSW,3.5,-,N/A,,Clear,200,2012-11-15 10:11:00
4:31 AM,33.8,32.0,93,30.09,10.0,SSW,3.5,-,N/A,,Scattered Clouds,210,2012-11-15 10:31:00
4:51 AM,33.8,32.0,93,30.09,10.0,SW,5.8,-,N/A,,Scattered Clouds,230,2012-11-15 10:51:00
5:10 AM,33.8,32.0,93,30.11,10.0,West,4.6,-,N/A,,Scattered Clouds,270,2012-11-15 11:10:00
5:31 AM,33.8,32.0,93,30.12,10.0,West,4.6,-,N/A,,Clear,270,2012-11-15 11:31:00
5:51 AM,33.8,32.0,93,30.12,10.0,WNW,3.5,-,N/A,,Clear,290,2012-11-15 11:51:00
6:11 AM,33.8,32.0,93,30.12,10.0,West,5.8,-,N/A,,Clear,280,2012-11-15 12:11:00
6:31 AM,33.8,32.0,93,30.13,10.0,WNW,6.9,-,N/A,,Clear,300,2012-11-15 12:31:00
6:51 AM,33.8,32.0,93,30.15,10.0,WNW,5.8,-,N/A,,Clear,300,2012-11-15 12:51:00
7:11 AM,33.8,32.0,93,30.16,10.0,WNW,6.9,-,N/A,,Clear,300,2012-11-15 13:11:00
7:31 AM,33.8,32.0,93,30.17,10.0,WNW,6.9,-,N/A,,Clear,300,2012-11-15 13:31:00
7:51 AM,33.8,32.0,93,30.18,10.0,WNW,9.2,-,N/A,,Clear,300,2012-11-15 13:51:00
8:11 AM,33.8,32.0,93,30.19,10.0,NW,12.7,-,N/A,,Clear,310,2012-11-15 14:11:00
8:31 AM,35.6,32.0,87,30.21,10.0,NW,12.7,-,N/A,,Clear,310,2012-11-15 14:31:00
8:50 AM,35.6,32.0,87,30.21,10.0,NW,13.8,-,N/A,,Clear,310,2012-11-15 14:50:00
9:11 AM,35.6,32.0,87,30.23,10.0,NW,15.0,-,N/A,,Clear,320,2012-11-15 15:11:00
9:31 AM,35.6,32.0,87,30.24,10.0,NW,17.3,21.9,N/A,,Clear,320,2012-11-15 15:31:00
9:51 AM,37.4,32.0,81,30.25,10.0,NW,13.8,-,N/A,,Clear,310,2012-11-15 15:51:00
10:11 AM,37.4,32.0,81,30.26,10.0,NW,12.7,19.6,N/A,,Clear,310,2012-11-15 16:11:00
10:31 AM,39.2,32.0,75,30.27,10.0,NW,11.5,18.4,N/A,,Clear,310,2012-11-15 16:31:00
10:51 AM,39.2,32.0,75,30.28,10.0,NW,12.7,-,N/A,,Clear,310,2012-11-15 16:51:00
11:10 AM,39.2,32.0,75,30.28,10.0,NW,16.1,-,N/A,,Clear,310,2012-11-15 17:10:00
11:31 AM,39.2,32.0,75,30.28,10.0,NW,15.0,19.6,N/A,,Clear,320,2012-11-15 17:31:00
11:51 AM,41.0,32.0,70,30.29,10.0,NW,17.3,20.7,N/A,,Clear,310,2012-11-15 17:51:00
12:10 PM,41.0,33.8,76,30.29,10.0,NW,15.0,25.3,N/A,,Clear,310,2012-11-15 18:10:00
12:31 PM,42.8,33.8,70,30.29,10.0,NW,15.0,20.7,N/A,,Clear,320,2012-11-15 18:31:00
12:50 PM,42.8,32.0,66,30.29,10.0,NW,16.1,21.9,N/A,,Clear,310,2012-11-15 18:50:00
1:11 PM,42.8,32.0,66,30.30,10.0,NNW,16.1,-,N/A,,Clear,330,2012-11-15 19:11:00
1:31 PM,42.8,32.0,66,30.30,10.0,NW,13.8,20.7,N/A,,Clear,320,2012-11-15 19:31:00
1:50 PM,42.8,32.0,66,30.30,10.0,NNW,16.1,23.0,N/A,,Clear,330,2012-11-15 19:50:00
2:11 PM,42.8,32.0,66,30.31,10.0,NW,18.4,21.9,N/A,,Clear,320,2012-11-15 20:11:00
2:31 PM,42.8,32.0,66,30.32,10.0,NW,18.4,24.2,N/A,,Clear,320,2012-11-15 20:31:00
2:51 PM,42.8,32.0,66,30.33,10.0,NW,18.4,-,N/A,,Clear,320,2012-11-15 20:51:00
3:11 PM,41.0,32.0,70,30.33,10.0,NW,18.4,25.3,N/A,,Clear,320,2012-11-15 21:11:00
3:31 PM,39.2,30.2,70,30.34,10.0,NW,16.1,21.9,N/A,,Clear,320,2012-11-15 21:31:00
3:51 PM,39.2,30.2,70,30.35,10.0,NW,13.8,19.6,N/A,,Clear,320,2012-11-15 21:51:00
4:10 PM,39.2,30.2,70,30.36,10.0,NW,12.7,19.6,N/A,,Clear,320,2012-11-15 22:10:00
4:31 PM,35.6,28.4,75,30.37,10.0,NW,11.5,-,N/A,,Clear,320,2012-11-15 22:31:00
4:51 PM,35.6,28.4,75,30.38,10.0,NW,10.4,-,N/A,,Clear,320,2012-11-15 22:51:00
5:11 PM,33.8,26.6,75,30.38,10.0,NNW,6.9,-,N/A,,Clear,330,2012-11-15 23:11:00
5:31 PM,33.8,26.6,75,30.39,10.0,NW,6.9,-,N/A,,Clear,320,2012-11-15 23:31:00
5:50 PM,32.0,26.6,80,30.40,10.0,NW,6.9,-,N/A,,Clear,320,2012-11-15 23:50:00
6:11 PM,32.0,28.4,87,30.40,10.0,NW,5.8,-,N/A,,Clear,320,2012-11-16 00:11:00
6:31 PM,32.0,26.6,80,30.41,10.0,NW,5.8,-,N/A,,Clear,320,2012-11-16 00:31:00
6:50 PM,30.2,24.8,80,30.41,10.0,NW,5.8,-,N/A,,Clear,320,2012-11-16 00:50:00
7:11 PM,30.2,24.8,80,30.41,10.0,NW,4.6,-,N/A,,Clear,320,2012-11-16 01:11:00
7:31 PM,30.2,24.8,80,30.41,10.0,NW,4.6,-,N/A,,Clear,310,2012-11-16 01:31:00
7:51 PM,30.2,24.8,80,30.42,10.0,West,5.8,-,N/A,,Clear,280,2012-11-16 01:51:00
8:11 PM,28.4,23.0,80,30.43,10.0,NW,5.8,-,N/A,,Clear,310,2012-11-16 02:11:00
8:31 PM,28.4,23.0,80,30.44,10.0,NW,6.9,-,N/A,,Clear,310,2012-11-16 02:31:00
8:51 PM,28.4,23.0,80,30.44,10.0,NW,4.6,-,N/A,,Clear,320,2012-11-16 02:51:00
9:10 PM,28.4,23.0,80,30.45,10.0,NW,4.6,-,N/A,,Clear,320,2012-11-16 03:10:00
9:31 PM,26.6,23.0,86,30.45,10.0,NW,5.8,-,N/A,,Clear,320,2012-11-16 03:31:00
9:51 PM,26.6,21.2,80,30.45,10.0,NW,4.6,-,N/A,,Clear,310,2012-11-16 03:51:00
10:11 PM,26.6,21.2,80,30.45,10.0,NW,4.6,-,N/A,,Clear,310,2012-11-16 04:11:00
10:31 PM,24.8,21.2,86,30.46,10.0,NW,4.6,-,N/A,,Clear,320,2012-11-16 04:31:00
10:51 PM,24.8,21.2,86,30.46,10.0,NW,4.6,-,N/A,,Clear,310,2012-11-16 04:51:00
11:11 PM,23.0,21.2,93,30.46,10.0,NNW,5.8,-,N/A,,Clear,330,2012-11-16 05:11:00
11:30 PM,23.0,19.4,86,30.46,10.0,NNW,4.6,-,N/A,,Clear,330,2012-11-16 05:30:00
11:51 PM,23.0,19.4,86,30.47,10.0,NW,4.6,-,N/A,,Clear,320,2012-11-16 05:51:00